Location: Newark
(25.0000°N, 73.5000°E)
Time: 22:35:52
(UTC+00:00)

A-11 Canister half - Visible Passes

Search period start: 30 July 2021 00:00
Search period end: 09 August 2021 00:00
Orbit: 1513 x 1687 km, 47.2° (Epoch: 30 July)

Date Brightness Start Highest point End Pass type
(mag) Time Alt. Az. Time Alt. Az. Time Alt. Az.
30 Jul 11.0 15:51:09 10° NW 15:58:04 20° N 16:05:03 10° NE visible
30 Jul 10.0 17:56:47 10° NW 18:06:06 39° NNE 18:07:24 37° NE visible
30 Jul 10.3 20:01:36 10° NW 20:05:31 27° NW 20:05:31 27° NW visible
31 Jul 11.0 15:28:03 10° NW 15:34:54 20° N 15:41:49 10° NE visible
31 Jul 10.0 17:33:51 10° NW 17:43:02 37° NNE 17:44:55 34° NE visible
31 Jul 10.2 19:38:36 10° NW 19:43:02 31° NW 19:43:02 31° NW visible
01 Aug 11.0 15:04:57 10° NW 15:11:44 20° N 15:18:35 10° NE visible
01 Aug 10.1 17:10:55 10° NW 17:19:58 35° NNE 17:22:32 31° NE visible
01 Aug 10.1 19:15:37 10° NW 19:20:40 35° NW 19:20:40 35° NW visible
02 Aug 11.0 14:41:50 10° NW 14:48:34 19° N 14:55:22 10° NE visible
02 Aug 10.2 16:48:00 10° NW 16:56:54 33° NNE 17:00:14 28° ENE visible
02 Aug 10.0 18:52:38 10° NW 18:58:22 40° NW 18:58:22 40° NW visible
03 Aug 11.0 14:18:42 10° NW 14:25:23 19° N 14:32:10 10° NE visible
03 Aug 10.2 16:25:03 10° NW 16:33:49 32° NNE 16:38:00 24° ENE visible
03 Aug 9.8 18:29:40 10° NW 18:36:09 46° NW 18:36:09 46° NW visible
04 Aug 10.3 16:02:07 10° NNW 16:10:43 30° NNE 16:15:50 20° ENE visible
04 Aug 9.6 18:06:43 10° NW 18:13:59 53° NW 18:13:59 53° NW visible
05 Aug 10.3 15:39:11 10° NNW 15:47:38 29° NNE 15:53:44 17° ENE visible
05 Aug 9.4 17:43:45 10° NW 17:51:54 62° NNW 17:51:54 62° NNW visible
06 Aug 10.4 15:16:15 10° NNW 15:24:31 28° NNE 15:31:41 13° ENE visible
06 Aug 9.2 17:20:49 10° NW 17:29:51 69° N 17:29:51 69° N visible
06 Aug 11.0 19:27:13 10° WNW 19:28:00 12° WNW 19:28:00 12° WNW visible
07 Aug 10.4 14:53:19 10° NNW 15:01:24 27° NNE 15:09:34 10° ENE visible
07 Aug 9.1 16:57:53 10° NW 17:07:51 70° NE 17:07:51 70° NE visible
07 Aug 10.9 19:04:01 10° WNW 19:06:02 16° WNW 19:06:02 16° WNW visible
08 Aug 10.5 14:30:22 10° NNW 14:38:18 25° NNE 14:46:18 10° ENE visible
08 Aug 9.1 16:34:57 10° NW 16:45:03 66° NE 16:45:55 64° ENE visible
08 Aug 10.7 18:40:52 10° WNW 18:44:06 21° W 18:44:06 21° W visible
